Location: Cahas Mountain Overlook
(37.0833°N, 80.1000°W)
Time: 19:54:39
(UTC-04:00)

SR - Pass Details

Date: 12 February 2026
Orbit: 572 x 849 km, 66.7° (Epoch: 13 March)

Event Time Altitude Azimuth Distance (km) Brightness Sun altitude
Rises 15:10:57 0° 333° (NNW) 3,091 ? 27.5°
Reaches altitude 10° 15:13:13 10° 334° (NNW) 2,212 ? 27.2°
Maximum altitude 15:18:18 84° 62° (ENE) 772 ? 26.5°
Drops below altitude 10° 15:23:47 10° 152° (SSE) 2,372 ? 25.7°
Sets 15:26:17 0° 152° (SSE) 3,331 ? 25.3°
